AEE1337 LGSM-LGAV

Flight info

Callsign AEE1337
Flight time 0h 35m
Altitude 20000
Route URNIL L609 IKARO P32 RIPLI L995 VARIX
Aircraft A319/M-SDE3FGHIRWY/LB1

Departure

Time 2026-05-04 11:42
Airport Samos Airport (LGSM)

Arrival

Time 2026-05-04 12:17
Airport Athens Eleftherios Venizelos International Airport (LGAV)
Time Latitude Longitude Altitude Speed Heading
2026-05-04 11:27 37.69067 26.91286 30 ft 0 kts
2026-05-04 11:34 37.69066 26.91285 30 ft 2 kts
2026-05-04 11:34 37.69049 26.91284 30 ft 2 kts
2026-05-04 11:34 37.69033 26.91282 30 ft 2 kts
2026-05-04 11:35 37.69016 26.91281 30 ft 2 kts
2026-05-04 11:35 37.69001 26.91285 30 ft 2 kts 294°
2026-05-04 11:35 37.68997 26.91302 30 ft 1 kts 275°
2026-05-04 11:35 37.68996 26.91304 31 ft 0 kts 273°
2026-05-04 11:38 37.68997 26.91298 31 ft 3 kts 273°
2026-05-04 11:38 37.69000 26.91238 30 ft 9 kts 275°
2026-05-04 11:39 37.69007 26.91130 30 ft 15 kts 275°
2026-05-04 11:39 37.68972 26.91061 31 ft 10 kts 192°
2026-05-04 11:40 37.68955 26.90093 32 ft 11 kts 309°
2026-05-04 11:41 37.68984 26.90117 32 ft 7 kts 93°
2026-05-04 11:41 37.68977 26.90230 32 ft 33 kts 95°
2026-05-04 11:41 37.68942 26.90825 32 ft 102 kts 95°
2026-05-04 11:41 37.68878 26.91986 41 ft 160 kts 90°
2026-05-04 11:42 37.68790 26.93384 666 ft 162 kts 99°
2026-05-04 11:42 37.68195 26.94627 1280 ft 173 kts 136°
2026-05-04 11:42 37.67109 26.95289 1878 ft 176 kts 173°
2026-05-04 11:42 37.65851 26.95131 2131 ft 190 kts 210°
2026-05-04 11:43 37.64798 26.94084 2424 ft 202 kts 230°
2026-05-04 11:43 37.63717 26.92816 2764 ft 222 kts 228°
2026-05-04 11:43 37.62517 26.91490 3291 ft 236 kts 219°
2026-05-04 11:43 37.60927 26.90906 4076 ft 247 kts 179°
2026-05-04 11:44 37.59211 26.91173 4931 ft 248 kts 172°
2026-05-04 11:44 37.57493 26.91463 5743 ft 250 kts 173°
2026-05-04 11:44 37.55745 26.91748 6436 ft 259 kts 173°
2026-05-04 11:44 37.53944 26.91997 6933 ft 261 kts 174°
2026-05-04 11:45 37.52154 26.92198 7033 ft 260 kts 176°
2026-05-04 11:45 37.50258 26.92318 7222 ft 286 kts 186°
2026-05-04 11:45 37.48397 26.91309 7457 ft 305 kts 225°
2026-05-04 11:45 37.47289 26.89018 7779 ft 315 kts 260°
2026-05-04 11:46 37.47385 26.86271 8169 ft 322 kts 293°
2026-05-04 11:46 37.48666 26.83992 8786 ft 319 kts 321°
2026-05-04 11:46 37.50247 26.82153 10237 ft 302 kts 313°
2026-05-04 11:46 37.51344 26.79906 11103 ft 312 kts 295°
2026-05-04 11:47 37.51731 26.77100 11312 ft 343 kts 271°
2026-05-04 11:47 37.51469 26.74055 11835 ft 354 kts 266°
2026-05-04 11:47 37.51185 26.70961 12527 ft 358 kts 267°
2026-05-04 11:47 37.50911 26.67831 13217 ft 361 kts 268°
2026-05-04 11:48 37.50647 26.64671 13911 ft 365 kts 268°
2026-05-04 11:48 37.50389 26.61480 14511 ft 368 kts 268°
2026-05-04 11:48 37.50130 26.58262 15136 ft 371 kts 268°
2026-05-04 11:48 37.49870 26.55017 15751 ft 374 kts 268°
2026-05-04 11:49 37.49603 26.51746 16367 ft 377 kts 268°
2026-05-04 11:49 37.49332 26.48453 16988 ft 380 kts 268°
2026-05-04 11:49 37.49056 26.45124 17613 ft 383 kts 267°
2026-05-04 11:49 37.48775 26.41772 18235 ft 387 kts 267°
2026-05-04 11:50 37.48490 26.38390 18796 ft 390 kts 267°
2026-05-04 11:50 37.48202 26.34988 19348 ft 393 kts 267°
2026-05-04 11:50 37.47912 26.31559 19860 ft 396 kts 266°
2026-05-04 11:50 37.47620 26.28107 20043 ft 396 kts 266°
2026-05-04 11:51 37.47426 26.25804 20072 ft 405 kts 266°
2026-05-04 11:51 37.47037 26.21117 20086 ft 415 kts 266°
2026-05-04 11:51 37.46732 26.17495 20089 ft 417 kts 266°
2026-05-04 11:51 37.46418 26.13866 20082 ft 417 kts 266°
2026-05-04 11:52 37.46102 26.10232 20082 ft 418 kts 266°
2026-05-04 11:52 37.45785 26.06601 20089 ft 418 kts 266°
2026-05-04 11:52 37.45466 26.02967 20094 ft 418 kts 266°
2026-05-04 11:52 37.45148 25.99328 20103 ft 418 kts 266°
2026-05-04 11:53 37.44834 25.95740 20093 ft 418 kts 266°
2026-05-04 11:53 37.44618 25.93284 20096 ft 418 kts 266°
2026-05-04 11:53 37.44195 25.88465 20104 ft 418 kts 266°
2026-05-04 11:53 37.43875 25.84834 20102 ft 418 kts 266°
2026-05-04 11:55 37.41708 25.60530 20122 ft 419 kts 265°
2026-05-04 11:55 37.41378 25.56881 20125 ft 419 kts 265°
2026-05-04 11:56 37.41046 25.53243 20122 ft 419 kts 265°
2026-05-04 11:56 37.40709 25.49603 20129 ft 419 kts 265°
2026-05-04 11:56 37.40371 25.45958 20118 ft 419 kts 265°
2026-05-04 11:56 37.40035 25.42313 20130 ft 420 kts 265°
2026-05-04 11:57 37.39700 25.38669 20126 ft 420 kts 265°
2026-05-04 11:57 37.39366 25.35023 20120 ft 420 kts 265°
2026-05-04 11:57 37.39031 25.31371 20123 ft 420 kts 265°
2026-05-04 11:57 37.38706 25.27844 20128 ft 420 kts 264°
2026-05-04 11:58 37.38364 25.24185 20129 ft 420 kts 264°
2026-05-04 11:58 37.38020 25.20541 20128 ft 420 kts 264°
2026-05-04 11:58 37.37674 25.16884 20126 ft 420 kts 264°
2026-05-04 11:58 37.37329 25.13233 20148 ft 421 kts 264°
2026-05-04 11:59 37.37043 25.09575 20148 ft 419 kts 270°
2026-05-04 11:59 37.37364 25.06000 19891 ft 406 kts 285°
2026-05-04 11:59 37.38155 25.02615 19405 ft 403 kts 288°
2026-05-04 11:59 37.38976 24.99267 19012 ft 399 kts 289°
2026-05-04 12:00 37.39803 24.95934 18767 ft 398 kts 289°
2026-05-04 12:00 37.40624 24.92627 18325 ft 394 kts 289°
2026-05-04 12:00 37.41431 24.89356 17738 ft 390 kts 289°
2026-05-04 12:00 37.42226 24.86109 17161 ft 386 kts 289°
2026-05-04 12:01 37.43017 24.82892 16598 ft 382 kts 289°
2026-05-04 12:01 37.43836 24.79719 16331 ft 382 kts 290°
2026-05-04 12:02 37.48904 24.60925 14663 ft 371 kts 291°
2026-05-04 12:03 37.49720 24.57856 14178 ft 368 kts 291°
2026-05-04 12:03 37.50525 24.54818 13667 ft 364 kts 291°
2026-05-04 12:03 37.51321 24.51815 13132 ft 361 kts 291°
2026-05-04 12:03 37.52111 24.48829 12603 ft 357 kts 291°
2026-05-04 12:04 37.52893 24.45868 12088 ft 354 kts 291°
2026-05-04 12:04 37.53665 24.42932 11576 ft 352 kts 291°
2026-05-04 12:04 37.54430 24.40019 11076 ft 349 kts 291°
2026-05-04 12:04 37.55190 24.37128 10588 ft 346 kts 291°
2026-05-04 12:05 37.55945 24.34260 10100 ft 344 kts 291°
2026-05-04 12:05 37.56684 24.31445 9809 ft 329 kts 291°
2026-05-04 12:05 37.57377 24.28791 9678 ft 308 kts 292°
2026-05-04 12:05 37.58027 24.26297 9540 ft 291 kts 292°
2026-05-04 12:06 37.58643 24.23936 9368 ft 277 kts 292°
2026-05-04 12:06 37.59241 24.21662 8995 ft 271 kts 292°
2026-05-04 12:06 37.59832 24.19418 8582 ft 269 kts 292°
2026-05-04 12:06 37.60415 24.17194 8262 ft 266 kts 291°
2026-05-04 12:07 37.60992 24.14988 7922 ft 264 kts 291°
2026-05-04 12:07 37.61566 24.12796 7602 ft 262 kts 291°
2026-05-04 12:07 37.62135 24.10620 7272 ft 260 kts 291°
2026-05-04 12:07 37.62698 24.08457 6955 ft 259 kts 291°
2026-05-04 12:08 37.63255 24.06310 6625 ft 257 kts 291°
2026-05-04 12:08 37.63809 24.04170 6296 ft 256 kts 291°
2026-05-04 12:08 37.64360 24.02042 5941 ft 255 kts 290°
2026-05-04 12:08 37.64903 23.99936 5753 ft 248 kts 290°
2026-05-04 12:09 37.65428 23.97907 5623 ft 239 kts 291°
2026-05-04 12:09 37.65941 23.95936 5409 ft 235 kts 290°
2026-05-04 12:09 37.66449 23.93983 5113 ft 234 kts 290°
2026-05-04 12:09 37.66954 23.92039 4802 ft 233 kts 290°
2026-05-04 12:10 37.67457 23.90097 4491 ft 232 kts 290°
2026-05-04 12:10 37.67958 23.88164 4166 ft 231 kts 290°
2026-05-04 12:10 37.68457 23.86234 3844 ft 231 kts 290°
2026-05-04 12:10 37.68952 23.84311 3594 ft 229 kts 290°
2026-05-04 12:11 37.69442 23.82412 3337 ft 226 kts 289°
2026-05-04 12:11 37.70015 23.80591 3094 ft 220 kts 304°
2026-05-04 12:11 37.71064 23.79276 3002 ft 210 kts 329°
2026-05-04 12:11 37.72427 23.78711 2999 ft 205 kts 355°
2026-05-04 12:12 37.73812 23.78723 3000 ft 193 kts 360°
2026-05-04 12:12 37.75120 23.78751 3004 ft 184 kts 359°
2026-05-04 12:12 37.76392 23.78774 3001 ft 182 kts 359°
2026-05-04 12:12 37.77649 23.78887 3006 ft 182 kts
2026-05-04 12:13 37.78838 23.79434 3005 ft 183 kts 28°
2026-05-04 12:14 37.85745 23.85810 1971 ft 153 kts 34°
2026-05-04 12:15 37.86557 23.86580 1766 ft 141 kts 33°
2026-05-04 12:15 37.87315 23.87298 1580 ft 134 kts 33°
2026-05-04 12:15 37.88063 23.88010 1400 ft 134 kts 33°
2026-05-04 12:15 37.88802 23.88724 1219 ft 133 kts 33°
2026-05-04 12:16 37.89549 23.89417 1021 ft 133 kts 35°
2026-05-04 12:16 37.90295 23.90100 836 ft 132 kts 36°
2026-05-04 12:16 37.91019 23.90797 652 ft 128 kts 40°
2026-05-04 12:16 37.91723 23.91490 461 ft 128 kts 39°
2026-05-04 12:17 37.92427 23.92149 318 ft 123 kts 39°
2026-05-04 12:17 37.93012 23.92721 294 ft 85 kts 36°
2026-05-04 12:17 37.93352 23.93039 291 ft 38 kts 36°
2026-05-04 12:17 37.93531 23.93215 291 ft 19 kts 50°
2026-05-04 12:18 37.93603 23.93373 293 ft 19 kts 66°
2026-05-04 12:18 37.93624 23.93438 296 ft 0 kts 68°
2026-05-04 12:18 37.93625 23.93442 296 ft 2 kts 68°
2026-05-04 12:18 37.93625 23.93477 298 ft 6 kts 105°
2026-05-04 12:19 37.93573 23.93513 301 ft 11 kts 182°
2026-05-04 12:19 37.93502 23.93454 300 ft 14 kts 219°
2026-05-04 12:19 37.93425 23.93444 299 ft 12 kts 130°
2026-05-04 12:19 37.93372 23.93539 302 ft 14 kts 127°
2026-05-04 12:20 37.93307 23.93646 301 ft 16 kts 127°
2026-05-04 12:20 37.93233 23.93771 301 ft 19 kts 127°
2026-05-04 12:20 37.93149 23.93911 301 ft 22 kts 127°
2026-05-04 12:20 37.93088 23.94025 302 ft 12 kts 102°
2026-05-04 12:21 37.93143 23.94101 302 ft 14 kts 34°
2026-05-04 12:21 37.93231 23.94182 301 ft 18 kts 37°
2026-05-04 12:21 37.93280 23.94295 302 ft 16 kts 119°
2026-05-04 12:21 37.93207 23.94415 301 ft 19 kts 127°
2026-05-04 12:22 37.93156 23.94523 301 ft 12 kts 85°
2026-05-04 12:22 37.93224 23.94599 304 ft 15 kts 36°
2026-05-04 12:22 37.93312 23.94685 303 ft 17 kts 37°
2026-05-04 12:22 37.93416 23.94784 302 ft 20 kts 37°
2026-05-04 12:23 37.93529 23.94892 302 ft 16 kts 37°
2026-05-04 12:23 37.93591 23.94951 302 ft 8 kts 37°
2026-05-04 12:23 37.93626 23.94929 302 ft 7 kts 306°
2026-05-04 12:23 37.93641 23.94903 302 ft 3 kts 306°
2026-05-04 12:24 37.93653 23.94882 302 ft 2 kts 307°
2026-05-04 12:24 37.93654 23.94881 302 ft 0 kts 307°